This is the latest recevied weather packets stored in our database for station/object KC0UFP. If no packets are shown the sender has not sent any weather packets the latest 10 day(s).
| Time | Temp. | Humidity | Pressure | Rain* | Wind** | Luminosity | Snow |
|---|---|---|---|---|---|---|---|
| 1777471596 | 15.56° C | 93% | 1015.5 hPa | 0 mm | - | 243 W/m² | - |
| 1777471293 | 15.56° C | 93% | 1015.3 hPa | 0 mm | - | 170 W/m² | - |
| 1777470989 | 15° C | 93% | 1015.5 hPa | 0 mm | - | 132 W/m² | - |
| 1777470686 | 15° C | 93% | 1015.4 hPa | 0 mm | - | 101 W/m² | - |
| 1777470382 | 15° C | 93% | 1015.2 hPa | 0 mm | - | 87 W/m² | - |
| 1777470079 | 15° C | 93% | 1015.4 hPa | 0 mm | - | 70 W/m² | - |
| 1777469776 | 15° C | 93% | 1015.3 hPa | 0 mm | - | 71 W/m² | - |
| 1777469471 | 15° C | 93% | 1015.5 hPa | 0 mm | - | 67 W/m² | - |
| 1777469171 | 15° C | 93% | 1015.1 hPa | 0 mm | - | 70 W/m² | - |
| 1777468865 | 15° C | 94% | 1015 hPa | 0 mm | - | 66 W/m² | - |
| 1777468562 | 15.56° C | 94% | 1015 hPa | 0 mm | - | 59 W/m² | - |
| 1777468259 | 15.56° C | 93% | 1015 hPa | 0 mm | - | 64 W/m² | - |
| 1777467955 | 15.56° C | 93% | 1014.6 hPa | 0 mm | - | 146 W/m² | - |
| 1777467651 | 15.56° C | 94% | 1014.7 hPa | 0 mm | - | 122 W/m² | - |
| 1777467346 | 15.56° C | 94% | 1014.6 hPa | 0 mm | - | 100 W/m² | - |
| 1777467043 | 15.56° C | 95% | 1014.6 hPa | 0 mm | - | 64 W/m² | - |
| 1777466740 | 15.56° C | 95% | 1014.5 hPa | 0 mm | - | 64 W/m² | - |
| 1777466438 | 15.56° C | 94% | 1014.4 hPa | 0 mm | - | 41 W/m² | - |
| 1777466133 | 15.56° C | 94% | 1014.2 hPa | 0 mm | - | 50 W/m² | - |
| 1777465830 | 15.56° C | 94% | 1014 hPa | 0 mm | - | 43 W/m² | - |
| 1777465526 | 15.56° C | 95% | 1013.9 hPa | 0 mm | - | 39 W/m² | - |
| 1777465221 | 15.56° C | 95% | 1013.9 hPa | 0 mm | - | 33 W/m² | - |
| 1777464916 | 15.56° C | 95% | 1013.8 hPa | 0 mm | - | 31 W/m² | - |
| 1777464611 | 16.11° C | 95% | 1013.5 hPa | 0 mm | - | 29 W/m² | - |
| 1777464308 | 16.11° C | 96% | 1013.6 hPa | 0 mm | - | 26 W/m² | - |
* Rain latest hour (hover to see other rain measurements)
** Current wind speed in m/s (hover to see current wind gust speed)